When you browse on this site, cookies collect data to enhance your experience and personalize the content and advertising you see.
Visit our Privacy Policy to learn more. By continuing to use the site, you agree to this use of cookies and data.
  • In Schweiz
  • Länderverzeichnis
  • Für 7 Tage
  • Wassertemperatur
  • Wetterkarte
  • Widgets
  • user-avatar
    Anmelden

    Stündliche Wetter Tampere

    Heute, 7 April, Dienstag

    Zeit Temperatur Niederschläge Wind Luftdruck Luftfeuchtigkeit
    00:00 +1°C° 0 mm 4 m/S 758 mmHg 71%
    01:00 +1°C° 0 mm 4 m/S 758 mmHg 70%
    02:00 +1°C° 0 mm 4 m/S 757 mmHg 67%
    03:00 +1°C° 0 mm 4 m/S 756 mmHg 70%
    04:00 +1°C° 0 mm 4 m/S 755 mmHg 73%
    05:00 +1°C° 0 mm 4 m/S 755 mmHg 77%
    06:00 +3°C° 0 mm 4 m/S 754 mmHg 76%
    07:00 +3°C° 0 mm 4 m/S 754 mmHg 76%
    08:00 +4°C° 0 mm 4 m/S 753 mmHg 76%
    09:00 +6°C° 0 mm 4 m/S 753 mmHg 71%
    10:00 +7°C° 0 mm 4 m/S 752 mmHg 67%
    11:00 +10°C° 0 mm 4 m/S 752 mmHg 63%
    12:00 +10°C° 0 mm 4 m/S 752 mmHg 61%
    13:00 +11°C° 0 mm 4 m/S 752 mmHg 59%
    14:00 +12°C° 0 mm 4 m/S 751 mmHg 56%
    15:00 +11°C° 0.1 mm 4 m/S 751 mmHg 63%
    16:00 +8°C° 0.1 mm 4 m/S 751 mmHg 70%
    17:00 +7°C° 0.1 mm 4 m/S 752 mmHg 77%
    18:00 +6°C° 0.4 mm 4 m/S 752 mmHg 78%
    19:00 +6°C° 0.4 mm 5 m/S 753 mmHg 79%
    20:00 +5°C° 0.4 mm 5 m/S 753 mmHg 81%
    21:00 +3°C° 0 mm 5 m/S 754 mmHg 79%
    22:00 +4°C° 0 mm 4 m/S 755 mmHg 77%
    23:00 +3°C° 0 mm 4 m/S 756 mmHg 74%

    Morgen, 8 April, Mittwoch

    Zeit Temperatur Niederschläge Wind Luftdruck Luftfeuchtigkeit
    00:00 +1°C° 0 mm 4 m/S 756 mmHg 76%
    01:00 +2°C° 0 mm 3 m/S 757 mmHg 77%
    02:00 +1°C° 0 mm 3 m/S 758 mmHg 79%
    03:00 +1°C° 0 mm 3 m/S 758 mmHg 82%
    04:00 +1°C° 0 mm 2 m/S 758 mmHg 85%
    05:00 +1°C° 0 mm 2 m/S 759 mmHg 88%
    06:00 +2°C° 0 mm 2 m/S 758 mmHg 84%
    07:00 +2°C° 0 mm 3 m/S 758 mmHg 79%
    08:00 +3°C° 0 mm 3 m/S 758 mmHg 74%
    09:00 +5°C° 0 mm 4 m/S 757 mmHg 66%
    10:00 +6°C° 0 mm 5 m/S 757 mmHg 59%
    11:00 +8°C° 0 mm 6 m/S 756 mmHg 51%
    12:00 +8°C° 0 mm 6 m/S 755 mmHg 51%
    13:00 +9°C° 0 mm 7 m/S 755 mmHg 52%
    14:00 +9°C° 0 mm 7 m/S 754 mmHg 52%
    15:00 +9°C° 0 mm 7 m/S 753 mmHg 54%
    16:00 +8°C° 0 mm 6 m/S 752 mmHg 56%
    17:00 +8°C° 0 mm 6 m/S 751 mmHg 59%
    18:00 +7°C° 0 mm 6 m/S 750 mmHg 61%
    19:00 +6°C° 0 mm 5 m/S 750 mmHg 63%
    20:00 +6°C° 0 mm 5 m/S 749 mmHg 65%
    21:00 +6°C° 0 mm 5 m/S 748 mmHg 64%
    22:00 +6°C° 0 mm 5 m/S 747 mmHg 64%
    23:00 +6°C° 0 mm 5 m/S 747 mmHg 63%

    übermorgen, 9 April, Donnerstag

    Zeit Temperatur Niederschläge Wind Luftdruck Luftfeuchtigkeit
    00:00 +6°C° 0 mm 5 m/S 746 mmHg 66%
    01:00 +6°C° 0 mm 5 m/S 745 mmHg 70%
    02:00 +5°C° 0 mm 5 m/S 745 mmHg 73%
    03:00 +5°C° 0 mm 4 m/S 745 mmHg 77%
    04:00 +4°C° 0 mm 4 m/S 745 mmHg 81%
    05:00 +3°C° 0 mm 4 m/S 745 mmHg 85%
    06:00 +3°C° 0 mm 4 m/S 745 mmHg 80%
    07:00 +3°C° 0 mm 4 m/S 745 mmHg 75%
    08:00 +3°C° 0 mm 3 m/S 745 mmHg 70%
    09:00 +4°C° 0 mm 4 m/S 745 mmHg 65%
    10:00 +4°C° 0 mm 4 m/S 745 mmHg 59%
    11:00 +5°C° 0 mm 4 m/S 745 mmHg 53%
    12:00 +5°C° 0 mm 4 m/S 746 mmHg 52%
    13:00 +5°C° 0 mm 5 m/S 746 mmHg 52%
    14:00 +5°C° 0 mm 5 m/S 746 mmHg 51%
    15:00 +5°C° 0.1 mm 5 m/S 746 mmHg 53%
    16:00 +5°C° 0.1 mm 5 m/S 746 mmHg 55%
    17:00 +3°C° 0.1 mm 5 m/S 746 mmHg 57%
    18:00 +4°C° 0 mm 4 m/S 747 mmHg 62%
    19:00 +3°C° 0 mm 3 m/S 747 mmHg 67%
    20:00 +2°C° 0 mm 3 m/S 748 mmHg 71%
    21:00 +2°C° 0 mm 3 m/S 748 mmHg 73%
    22:00 +2°C° 0 mm 2 m/S 749 mmHg 75%
    23:00 +1°C° 0 mm 2 m/S 749 mmHg 77%

    10 April, Freitag

    Zeit Temperatur Niederschläge Wind Luftdruck Luftfeuchtigkeit
    00:00 +1°C° 0 mm 2 m/S 750 mmHg 78%
    01:00 +1°C° 0 mm 2 m/S 750 mmHg 79%
    02:00 -1°C° 0 mm 2 m/S 750 mmHg 80%
    03:00 -1°C° 0 mm 2 m/S 751 mmHg 81%
    04:00 -1°C° 0 mm 2 m/S 751 mmHg 82%
    05:00 -1°C° 0 mm 2 m/S 751 mmHg 83%
    06:00 -1°C° 0 mm 3 m/S 752 mmHg 79%
    07:00 0°C° 0 mm 3 m/S 752 mmHg 75%
    08:00 -1°C° 0 mm 4 m/S 753 mmHg 72%
    09:00 0°C° 0 mm 4 m/S 753 mmHg 68%
    10:00 0°C° 0 mm 4 m/S 753 mmHg 63%
    11:00 0°C° 0 mm 5 m/S 754 mmHg 59%
    12:00 +1°C° 0 mm 5 m/S 754 mmHg 53%
    13:00 +2°C° 0 mm 5 m/S 754 mmHg 48%
    14:00 +2°C° 0 mm 5 m/S 754 mmHg 42%
    15:00 +2°C° 0 mm 5 m/S 754 mmHg 42%
    16:00 +1°C° 0 mm 5 m/S 755 mmHg 42%
    17:00 +1°C° 0 mm 5 m/S 755 mmHg 42%
    18:00 0°C° 0 mm 4 m/S 755 mmHg 46%
    19:00 0°C° 0 mm 3 m/S 756 mmHg 50%
    20:00 -1°C° 0 mm 3 m/S 756 mmHg 53%
    21:00 -2°C° 0 mm 2 m/S 756 mmHg 56%
    22:00 -2°C° 0 mm 2 m/S 756 mmHg 58%
    23:00 -2°C° 0 mm 2 m/S 757 mmHg 60%

    11 April, Samstag

    Zeit Temperatur Niederschläge Wind Luftdruck Luftfeuchtigkeit
    00:00 -2°C° 0 mm 2 m/S 757 mmHg 62%
    01:00 -3°C° 0 mm 2 m/S 757 mmHg 63%
    02:00 -3°C° 0 mm 2 m/S 757 mmHg 65%
    03:00 -3°C° 0 mm 2 m/S 757 mmHg 68%
    04:00 -3°C° 0 mm 2 m/S 758 mmHg 70%
    05:00 -1°C° 0 mm 1 m/S 758 mmHg 73%
    06:00 -2°C° 0 mm 2 m/S 758 mmHg 67%
    07:00 -1°C° 0 mm 2 m/S 758 mmHg 61%
    08:00 0°C° 0 mm 3 m/S 758 mmHg 55%
    09:00 +2°C° 0 mm 3 m/S 758 mmHg 50%
    10:00 +3°C° 0 mm 3 m/S 757 mmHg 46%
    11:00 +4°C° 0 mm 3 m/S 757 mmHg 41%
    12:00 +4°C° 0 mm 3 m/S 757 mmHg 40%
    13:00 +5°C° 0 mm 3 m/S 757 mmHg 39%
    14:00 +5°C° 0 mm 3 m/S 757 mmHg 38%
    15:00 +5°C° 0 mm 3 m/S 756 mmHg 41%
    16:00 +4°C° 0 mm 3 m/S 756 mmHg 44%
    17:00 +4°C° 0 mm 3 m/S 755 mmHg 48%
    18:00 +3°C° 0 mm 3 m/S 755 mmHg 56%
    19:00 +2°C° 0 mm 3 m/S 754 mmHg 65%
    20:00 +1°C° 0 mm 3 m/S 754 mmHg 73%
    21:00 +1°C° 0 mm 3 m/S 753 mmHg 77%
    22:00 0°C° 0 mm 4 m/S 753 mmHg 81%
    23:00 0°C° 0 mm 4 m/S 752 mmHg 86%

    12 April, Sonntag

    Zeit Temperatur Niederschläge Wind Luftdruck Luftfeuchtigkeit
    00:00 0°C° 0.1 mm 4 m/S 752 mmHg 87%
    01:00 0°C° 0.1 mm 5 m/S 751 mmHg 89%
    02:00 -1°C° 0.1 mm 5 m/S 750 mmHg 91%
    03:00 0°C° 0.2 mm 5 m/S 749 mmHg 92%
    04:00 0°C° 0.2 mm 5 m/S 748 mmHg 93%
    05:00 0°C° 0.2 mm 5 m/S 747 mmHg 95%
    06:00 0°C° 0.4 mm 5 m/S 746 mmHg 94%
    07:00 +1°C° 0.4 mm 5 m/S 746 mmHg 94%
    08:00 +2°C° 0.4 mm 5 m/S 745 mmHg 93%
    09:00 +2°C° 0.4 mm 5 m/S 744 mmHg 93%
    10:00 +2°C° 0.4 mm 5 m/S 743 mmHg 92%
    11:00 +3°C° 0.4 mm 5 m/S 743 mmHg 92%
    12:00 +4°C° 0.7 mm 4 m/S 742 mmHg 92%
    13:00 +4°C° 0.7 mm 4 m/S 742 mmHg 92%
    14:00 +4°C° 0.7 mm 4 m/S 741 mmHg 92%
    15:00 +4°C° 0.6 mm 4 m/S 740 mmHg 93%
    16:00 +4°C° 0.6 mm 4 m/S 739 mmHg 94%
    17:00 +4°C° 0.6 mm 3 m/S 739 mmHg 94%
    18:00 +4°C° 0.6 mm 4 m/S 738 mmHg 94%
    19:00 +4°C° 0.6 mm 4 m/S 737 mmHg 94%
    20:00 +4°C° 0.6 mm 4 m/S 737 mmHg 94%
    21:00 +1°C° 0.3 mm 5 m/S 737 mmHg 93%
    22:00 0°C° 0.3 mm 5 m/S 737 mmHg 92%
    23:00 -2°C° 0.3 mm 6 m/S 737 mmHg 92%
    Mehr zeigen